| time (UTC) | temp F | wind direction | speed MPH | gust MPH | rain 1hr in | rain 24hr in | rain mn in | humidity % | barometer mb |
| 20260502181536 | 67 | 193 | 5.0 | 11.0 | 0.00 | 0.00 | 0.00 | 29 | 1015.1 |
| 20260502180115 | 67 | 195 | 7.0 | 11.0 | 0.00 | 0.00 | 0.00 | 28 | 1015.0 |
| 20260502170108 | 71 | 194 | 5.0 | 11.0 | 0.00 | 0.00 | 0.00 | 23 | 1014.7 |
| 20260502163115 | 74 | 172 | 1.0 | 11.0 | 0.00 | 0.00 | 0.00 | 24 | 1014.8 |
| 20260502161524 | 74 | 130 | 5.0 | 11.0 | 0.00 | 0.00 | 0.00 | 24 | 1014.9 |
| 20260502160113 | 75 | 205 | 4.0 | 10.0 | 0.00 | 0.00 | 0.00 | 19 | 1014.9 |
| 20260502151508 | 77 | 234 | 0.0 | 1.0 | 0.00 | 0.00 | 0.00 | 27 | 1015.3 |
| 20260502150118 | 77 | 213 | 0.0 | 1.0 | 0.00 | 0.00 | 0.00 | 29 | 1015.5 |
| 20260502130110 | 77 | 148 | 0.0 | 2.0 | 0.00 | 0.00 | 0.00 | 20 | 1017.3 |
| 20260502123011 | 77 | 30 | 0.0 | 3.0 | 0.00 | 0.00 | 0.00 | 22 | 1017.7 |
| 20260502121543 | 77 | 336 | 0.0 | 3.0 | 0.00 | 0.00 | 0.00 | 22 | 1017.9 |
| 20260502120117 | 76 | 89 | 0.0 | 2.0 | 0.00 | 0.00 | 0.00 | 18 | 1018.2 |
| 20260502114508 | 75 | 254 | 0.0 | 2.0 | 0.00 | 0.00 | 0.00 | 26 | 1018.4 |
| 20260502111623 | 73 | 82 | 0.0 | 3.0 | 0.00 | 0.00 | 0.00 | 31 | 1018.9 |
| 20260502110028 | 72 | 85 | 0.0 | 3.0 | 0.00 | 0.00 | 0.00 | 32 | 1019.3 |
| 20260502104607 | 71 | 88 | 0.0 | 3.0 | 0.00 | 0.00 | 0.00 | 33 | 1019.5 |
| 20260502103016 | 69 | 75 | 0.0 | 3.0 | 0.00 | 0.00 | 0.00 | 36 | 1019.9 |
| 20260502101607 | 68 | 348 | 0.0 | 2.0 | 0.00 | 0.00 | 0.00 | 42 | 1020.1 |
| 20260502090118 | 61 | 200 | 0.0 | 1.0 | 0.00 | 0.00 | 0.00 | 47 | 1021.5 |
| 20260502071506 | 50 | 28 | 0.0 | 1.0 | 0.00 | 0.00 | 0.00 | 65 | 1023.2 |
| 20260502070101 | 48 | 280 | 0.0 | 0.0 | 0.00 | 0.00 | 0.00 | 69 | 1023.5 |
| 20260502064511 | 46 | 282 | 0.0 | 1.0 | 0.00 | 0.00 | 0.00 | 76 | 1023.7 |
| 20260502063107 | 44 | 221 | 0.0 | 0.0 | 0.00 | 0.00 | 0.00 | 81 | 1023.8 |
| 20260502061509 | 41 | 215 | 0.0 | 0.0 | 0.00 | 0.00 | 0.00 | 87 | 1024.1 |
| 20260502060109 | 39 | 215 | 0.0 | 0.0 | 0.00 | 0.00 | 0.00 | 91 | 1024.1 |
| 20260502054515 | 37 | 215 | 0.0 | 0.0 | 0.00 | 0.00 | 0.00 | 92 | 1024.2 |
| 20260502053128 | 36 | 215 | 0.0 | 0.0 | 0.00 | 0.00 | 0.00 | 92 | 1024.3 |
| 20260502051522 | 35 | 215 | 0.0 | 0.0 | 0.00 | 0.00 | 0.00 | 92 | 1024.3 |
| 20260502050107 | 35 | 215 | 0.0 | 0.0 | 0.00 | 0.00 | 0.00 | 92 | 1024.3 |
| 20260502044521 | 35 | 215 | 0.0 | 0.0 | 0.00 | 0.00 | 0.00 | 94 | 1024.3 |
| 20260502043118 | 33 | 215 | 0.0 | 0.0 | 0.00 | 0.00 | 0.00 | 94 | 1024.3 |
| 20260502041537 | 33 | 215 | 0.0 | 0.0 | 0.00 | 0.00 | 0.00 | 93 | 1024.5 |
| 20260502040131 | 34 | 215 | 0.0 | 0.0 | 0.00 | 0.00 | 0.00 | 93 | 1024.4 |
| 20260502034559 | 33 | 215 | 0.0 | 0.0 | 0.00 | 0.00 | 0.00 | 93 | 1024.3 |
| 20260502033017 | 34 | 215 | 0.0 | 0.0 | 0.00 | 0.00 | 0.00 | 93 | 1024.3 |
| 20260502031611 | 34 | 215 | 0.0 | 0.0 | 0.00 | 0.00 | 0.00 | 92 | 1024.3 |
| 20260502030029 | 35 | 215 | 0.0 | 0.0 | 0.00 | 0.00 | 0.00 | 91 | 1024.5 |
| 20260502024620 | 35 | 215 | 0.0 | 0.0 | 0.00 | 0.00 | 0.00 | 92 | 1024.5 |
| 20260502023043 | 35 | 215 | 0.0 | 0.0 | 0.00 | 0.00 | 0.00 | 92 | 1024.7 |
| 20260502021630 | 35 | 215 | 0.0 | 0.0 | 0.00 | 0.00 | 0.00 | 92 | 1024.7 |
| 20260502020043 | 35 | 215 | 0.0 | 0.0 | 0.00 | 0.00 | 0.00 | 92 | 1024.6 |
| 20260502014534 | 35 | 215 | 0.0 | 0.0 | 0.00 | 0.00 | 0.00 | 89 | 1024.6 |
| 20260502013129 | 36 | 215 | 0.0 | 0.0 | 0.00 | 0.00 | 0.00 | 91 | 1024.6 |
| 20260502011539 | 36 | 215 | 0.0 | 0.0 | 0.00 | 0.00 | 0.00 | 90 | 1024.6 |
| 20260502010130 | 37 | 215 | 0.0 | 0.0 | 0.00 | 0.00 | 0.00 | 88 | 1024.6 |
| 20260502004543 | 37 | 215 | 0.0 | 0.0 | 0.00 | 0.00 | 0.00 | 88 | 1024.6 |
| 20260502003006 | 37 | 215 | 0.0 | 0.0 | 0.00 | 0.00 | 0.00 | 88 | 1024.7 |
| 20260502001601 | 37 | 215 | 0.0 | 0.0 | 0.00 | 0.00 | 0.00 | 87 | 1024.7 |
| 20260502000011 | 39 | 232 | 0.0 | 0.0 | 0.00 | 0.00 | 0.00 | 86 | 1024.6 |
| 20260501234556 | 39 | 232 | 0.0 | 0.0 | 0.00 | 0.00 | 0.00 | 85 | 1024.7 |
| 20260501233022 | 39 | 232 | 0.0 | 0.0 | 0.00 | 0.00 | 0.00 | 84 | 1024.7 |
| 20260501231616 | 40 | 232 | 0.0 | 0.0 | 0.00 | 0.00 | 0.00 | 82 | 1024.8 |
| 20260501230028 | 41 | 225 | 0.0 | 0.0 | 0.00 | 0.00 | 0.00 | 80 | 1024.7 |
| 20260501224618 | 41 | 225 | 0.0 | 0.0 | 0.00 | 0.00 | 0.00 | 80 | 1024.7 |
| 20260501223037 | 41 | 225 | 0.0 | 0.0 | 0.00 | 0.00 | 0.00 | 79 | 1024.7 |
| 20260501221619 | 42 | 225 | 0.0 | 0.0 | 0.00 | 0.00 | 0.00 | 77 | 1024.7 |
| 20260501220031 | 43 | 281 | 0.0 | 0.0 | 0.00 | 0.00 | 0.00 | 76 | 1024.6 |
| 20260501214530 | 43 | 281 | 0.0 | 0.0 | 0.00 | 0.00 | 0.00 | 76 | 1024.5 |
| 20260501213115 | 44 | 281 | 0.0 | 0.0 | 0.00 | 0.00 | 0.00 | 74 | 1024.5 |
| 20260501211549 | 45 | 281 | 0.0 | 0.0 | 0.00 | 0.00 | 0.00 | 72 | 1024.5 |
| 20260501210127 | 45 | 280 | 0.0 | 0.0 | 0.00 | 0.00 | 0.00 | 71 | 1024.3 |
| 20260501204541 | 48 | 161 | 0.0 | 0.0 | 0.00 | 0.00 | 0.00 | 64 | 1024.1 |
| 20260501203126 | 48 | 161 | 0.0 | 0.0 | 0.00 | 0.00 | 0.00 | 64 | 1024.0 |
| 20260501201530 | 49 | 161 | 0.0 | 0.0 | 0.00 | 0.00 | 0.00 | 63 | 1023.8 |
| 20260501200119 | 50 | 158 | 0.0 | 0.0 | 0.00 | 0.00 | 0.00 | 59 | 1023.7 |
| 20260501194532 | 53 | 331 | 0.0 | 1.0 | 0.00 | 0.00 | 0.00 | 55 | 1023.5 |
| 20260501193122 | 54 | 220 | 3.0 | 5.0 | 0.00 | 0.00 | 0.00 | 50 | 1023.4 |
| 20260501191544 | 56 | 205 | 0.0 | 2.0 | 0.00 | 0.00 | 0.00 | 50 | 1023.1 |
| 20260501190007 | 58 | 286 | 2.0 | 8.0 | 0.00 | 0.00 | 0.00 | 43 | 1022.9 |
| 20260501184554 | 58 | 267 | 5.0 | 10.0 | 0.00 | 0.00 | 0.00 | 43 | 1022.6 |
| 20260501183012 | 60 | 215 | 4.0 | 10.0 | 0.00 | 0.00 | 0.00 | 41 | 1022.4 |
| 20260501181617 | 59 | 245 | 4.0 | 11.0 | 0.00 | 0.00 | 0.00 | 42 | 1022.3 |